Location: Eastchurch
(51.4000°N, 0.8667°E)
Time: 19:46:00
(UTC+00:00)

Cosmos 1980 Rocket - Pass Details

Date: 19 January 2026
Orbit: 829 x 848 km, 71.0° (Epoch: 15 February)

Event Time Altitude Azimuth Distance (km) Brightness Sun altitude
Rises 19:59:40 0° 325° (NW) 3,384 5.9 -33.1°
Reaches altitude 10° 20:02:13 10° 319° (NW) 2,448 5.1 -33.4°
Enters shadow 20:07:23 40° 252° (WSW) 1,208 3.3 -34.2°
